When you browse on this site, cookies collect data to enhance your experience and personalize the content and advertising you see.
Visit our Privacy Policy to learn more. By continuing to use the site, you agree to this use of cookies and data.
  • In Romania
  • List of Countries
  • For 7 days
  • Water Temperature
  • Weather Map
  • Weather Widgets
  • user-avatar
    Login

    Hourly Weather Trujillo

    Today, 23 January, Thursday

    Time Temperature Precipitation Wind Pressure Humidity
    00:00 +18°C° 0 mm 1 mps 646 mmHg 90%
    01:00 +18°C° 0 mm 1 mps 646 mmHg 90%
    02:00 +18°C° 0 mm 1 mps 646 mmHg 90%
    03:00 +18°C° 0 mm 1 mps 645 mmHg 90%
    04:00 +18°C° 0 mm 1 mps 645 mmHg 90%
    05:00 +18°C° 0 mm 1 mps 645 mmHg 88%
    06:00 +17°C° 0 mm 0 mps 646 mmHg 87%
    07:00 +17°C° 0 mm 0 mps 647 mmHg 86%
    08:00 +21°C° 0 mm 1 mps 648 mmHg 77%
    09:00 +24°C° 0 mm 1 mps 649 mmHg 68%
    10:00 +26°C° 0 mm 1 mps 650 mmHg 60%
    11:00 +26°C° 0 mm 1 mps 649 mmHg 59%
    12:00 +26°C° 0 mm 2 mps 648 mmHg 59%
    13:00 +27°C° 0 mm 2 mps 648 mmHg 59%
    14:00 +26°C° 0.2 mm 2 mps 647 mmHg 65%
    15:00 +25°C° 0.2 mm 1 mps 646 mmHg 71%
    16:00 +24°C° 0.2 mm 1 mps 646 mmHg 76%
    17:00 +22°C° 0 mm 1 mps 646 mmHg 81%
    18:00 +21°C° 0 mm 1 mps 646 mmHg 85%
    19:00 +18°C° 0 mm 0 mps 646 mmHg 90%
    20:00 +18°C° 0 mm 0 mps 646 mmHg 89%
    21:00 +19°C° 0 mm 1 mps 647 mmHg 89%
    22:00 +19°C° 0 mm 1 mps 647 mmHg 89%
    23:00 +19°C° 0 mm 1 mps 647 mmHg 89%

    Tomorrow, 24 January, Friday

    Time Temperature Precipitation Wind Pressure Humidity
    00:00 +19°C° 0 mm 1 mps 646 mmHg 89%
    01:00 +18°C° 0 mm 1 mps 646 mmHg 89%
    02:00 +18°C° 0 mm 1 mps 646 mmHg 88%
    03:00 +18°C° 0 mm 1 mps 646 mmHg 87%
    04:00 +18°C° 0 mm 1 mps 645 mmHg 86%
    05:00 +19°C° 0 mm 1 mps 646 mmHg 84%
    06:00 +19°C° 0 mm 1 mps 646 mmHg 83%
    07:00 +19°C° 0 mm 1 mps 647 mmHg 81%
    08:00 +22°C° 0 mm 1 mps 648 mmHg 73%
    09:00 +24°C° 0 mm 1 mps 649 mmHg 65%
    10:00 +26°C° 0 mm 1 mps 650 mmHg 58%
    11:00 +26°C° 0.1 mm 1 mps 650 mmHg 59%
    12:00 +26°C° 0.1 mm 1 mps 649 mmHg 60%
    13:00 +26°C° 0.1 mm 1 mps 648 mmHg 61%
    14:00 +25°C° 0.4 mm 1 mps 647 mmHg 68%
    15:00 +24°C° 0.4 mm 1 mps 646 mmHg 75%
    16:00 +23°C° 0.4 mm 1 mps 646 mmHg 82%
    17:00 +22°C° 0.2 mm 1 mps 646 mmHg 86%
    18:00 +21°C° 0.2 mm 1 mps 646 mmHg 89%
    19:00 +18°C° 0.2 mm 0 mps 646 mmHg 92%
    20:00 +17°C° 0 mm 0 mps 646 mmHg 92%
    21:00 +19°C° 0 mm 1 mps 647 mmHg 92%
    22:00 +19°C° 0 mm 1 mps 647 mmHg 92%
    23:00 +19°C° 0 mm 1 mps 647 mmHg 92%

    Day after tomorrow, 25 January, Saturday

    Time Temperature Precipitation Wind Pressure Humidity
    00:00 +19°C° 0 mm 1 mps 647 mmHg 92%
    01:00 +19°C° 0 mm 1 mps 646 mmHg 92%
    02:00 +19°C° 0 mm 1 mps 646 mmHg 91%
    03:00 +18°C° 0 mm 1 mps 646 mmHg 91%
    04:00 +18°C° 0 mm 1 mps 646 mmHg 91%
    05:00 +16°C° 0 mm 0 mps 646 mmHg 89%
    06:00 +17°C° 0 mm 0 mps 647 mmHg 87%
    07:00 +17°C° 0 mm 0 mps 648 mmHg 85%
    08:00 +21°C° 0 mm 1 mps 649 mmHg 77%
    09:00 +23°C° 0 mm 1 mps 650 mmHg 69%
    10:00 +26°C° 0 mm 1 mps 651 mmHg 60%
    11:00 +26°C° 0.1 mm 1 mps 650 mmHg 62%
    12:00 +26°C° 0.1 mm 1 mps 649 mmHg 64%
    13:00 +26°C° 0.1 mm 1 mps 649 mmHg 66%
    14:00 +25°C° 0.3 mm 1 mps 648 mmHg 73%
    15:00 +24°C° 0.3 mm 1 mps 647 mmHg 79%
    16:00 +23°C° 0.3 mm 1 mps 646 mmHg 85%
    17:00 +22°C° 0.2 mm 1 mps 646 mmHg 87%
    18:00 +19°C° 0.2 mm 0 mps 646 mmHg 90%
    19:00 +18°C° 0.2 mm 0 mps 646 mmHg 93%
    20:00 +17°C° 0 mm 0 mps 647 mmHg 92%
    21:00 +17°C° 0 mm 0 mps 647 mmHg 92%
    22:00 +19°C° 0 mm 1 mps 647 mmHg 91%
    23:00 +18°C° 0 mm 1 mps 647 mmHg 92%

    26 January, Sunday

    Time Temperature Precipitation Wind Pressure Humidity
    00:00 +18°C° 0 mm 1 mps 647 mmHg 92%
    01:00 +18°C° 0 mm 1 mps 646 mmHg 92%
    02:00 +18°C° 0 mm 1 mps 646 mmHg 91%
    03:00 +16°C° 0 mm 1 mps 646 mmHg 89%
    04:00 +16°C° 0 mm 1 mps 646 mmHg 88%
    05:00 +18°C° 0 mm 1 mps 646 mmHg 87%
    06:00 +18°C° 0 mm 1 mps 647 mmHg 85%
    07:00 +18°C° 0 mm 1 mps 647 mmHg 83%
    08:00 +21°C° 0 mm 1 mps 648 mmHg 75%
    09:00 +23°C° 0 mm 1 mps 649 mmHg 66%
    10:00 +26°C° 0 mm 1 mps 650 mmHg 58%
    11:00 +25°C° 0.1 mm 1 mps 650 mmHg 60%
    12:00 +25°C° 0.1 mm 1 mps 649 mmHg 62%
    13:00 +25°C° 0.1 mm 1 mps 648 mmHg 64%
    14:00 +24°C° 0.6 mm 1 mps 648 mmHg 71%
    15:00 +23°C° 0.6 mm 1 mps 647 mmHg 77%
    16:00 +23°C° 0.6 mm 1 mps 646 mmHg 83%
    17:00 +22°C° 0.4 mm 1 mps 646 mmHg 86%
    18:00 +19°C° 0.4 mm 0 mps 646 mmHg 90%
    19:00 +18°C° 0.4 mm 0 mps 646 mmHg 93%
    20:00 +18°C° 0.1 mm 0 mps 647 mmHg 93%
    21:00 +17°C° 0.1 mm 0 mps 647 mmHg 92%
    22:00 +17°C° 0.1 mm 0 mps 647 mmHg 92%
    23:00 +17°C° 0 mm 0 mps 647 mmHg 92%

    27 January, Monday

    Time Temperature Precipitation Wind Pressure Humidity
    00:00 +18°C° 0 mm 1 mps 647 mmHg 92%
    01:00 +18°C° 0 mm 1 mps 646 mmHg 92%
    02:00 +18°C° 0 mm 1 mps 646 mmHg 92%
    03:00 +16°C° 0 mm 0 mps 646 mmHg 91%
    04:00 +16°C° 0 mm 0 mps 646 mmHg 91%
    05:00 +16°C° 0 mm 0 mps 647 mmHg 90%
    06:00 +17°C° 0 mm 0 mps 647 mmHg 89%
    07:00 +17°C° 0 mm 0 mps 648 mmHg 87%
    08:00 +21°C° 0 mm 1 mps 649 mmHg 80%
    09:00 +23°C° 0 mm 1 mps 649 mmHg 73%
    10:00 +25°C° 0 mm 1 mps 650 mmHg 65%
    11:00 +25°C° 0.1 mm 1 mps 650 mmHg 67%
    12:00 +25°C° 0.1 mm 1 mps 649 mmHg 68%
    13:00 +25°C° 0.1 mm 1 mps 648 mmHg 69%
    14:00 +24°C° 0.2 mm 1 mps 648 mmHg 73%
    15:00 +24°C° 0.2 mm 1 mps 647 mmHg 76%
    16:00 +23°C° 0.2 mm 1 mps 646 mmHg 79%
    17:00 +22°C° 0.1 mm 1 mps 646 mmHg 83%
    18:00 +21°C° 0.1 mm 1 mps 646 mmHg 87%
    19:00 +18°C° 0.1 mm 0 mps 646 mmHg 91%
    20:00 +17°C° 0 mm 0 mps 646 mmHg 91%
    21:00 +19°C° 0 mm 1 mps 647 mmHg 90%
    22:00 +19°C° 0 mm 1 mps 647 mmHg 89%
    23:00 +19°C° 0 mm 1 mps 646 mmHg 89%

    28 January, Tuesday

    Time Temperature Precipitation Wind Pressure Humidity
    00:00 +18°C° 0 mm 1 mps 646 mmHg 88%
    01:00 +18°C° 0 mm 1 mps 646 mmHg 88%
    02:00 +18°C° 0 mm 1 mps 646 mmHg 87%
    03:00 +18°C° 0 mm 1 mps 646 mmHg 86%
    04:00 +18°C° 0 mm 1 mps 646 mmHg 85%
    05:00 +18°C° 0 mm 1 mps 646 mmHg 83%
    06:00 +18°C° 0 mm 1 mps 647 mmHg 81%
    07:00 +19°C° 0 mm 1 mps 648 mmHg 80%
    08:00 +21°C° 0 mm 1 mps 648 mmHg 72%
    09:00 +23°C° 0 mm 1 mps 649 mmHg 65%
    10:00 +26°C° 0 mm 1 mps 650 mmHg 57%
    11:00 +26°C° 0.1 mm 1 mps 650 mmHg 57%
    12:00 +26°C° 0.1 mm 1 mps 649 mmHg 57%
    13:00 +27°C° 0.1 mm 2 mps 649 mmHg 58%
    14:00 +26°C° 0.3 mm 1 mps 648 mmHg 65%
    15:00 +24°C° 0.3 mm 1 mps 647 mmHg 72%
    16:00 +23°C° 0.3 mm 1 mps 646 mmHg 79%
    17:00 +22°C° 0.1 mm 1 mps 646 mmHg 82%
    18:00 +21°C° 0.1 mm 1 mps 646 mmHg 86%
    19:00 +18°C° 0.1 mm 0 mps 646 mmHg 90%
    20:00 +18°C° 0 mm 0 mps 646 mmHg 90%
    21:00 +17°C° 0 mm 0 mps 647 mmHg 89%
    22:00 +17°C° 0 mm 0 mps 647 mmHg 89%
    23:00 +19°C° 0 mm 1 mps 647 mmHg 88%
    Show more